Back to catalog

COSMOS 2251 DEB

AliveLEO
NORAD 35646·DEBRIS·🇷🇺 Russia

Launched Jun 16, 1993 from Plesetsk Cosmodrome

Loading…

Next Passes (next 24 hours)

TLE

FreshSource: Space-Track

Epoch: Sep 14, 2026, 14:08 UTC

1 35646U 93036ANM 26257.58917078  .00000155  00000-0  16983-3 0  9993
2 35646  73.8716 338.1063 0457856  40.6721  22.9594 13.41211243855569

Track COSMOS 2251 DEB in real time with AllMySat

Download on the App Store